Location: Garshuizen
(53.3675°N, 6.7248°E)
Time: 12:05:15
(UTC+00:00)

Cosmos 2322 Rocket - Pass Details

Date: 15 May 2026
Orbit: 831 x 850 km, 71.0° (Epoch: 5 June)

Event Time Altitude Azimuth Distance (km) Brightness Sun altitude
Rises 22:16:46 0° 321° (NW) 3,409 6.7 -15.9°
Reaches altitude 10° 22:19:45 10° 306° (NW) 2,472 5.4 -16.0°
Maximum altitude 22:23:52 21° 259° (W) 1,811 4.0 -16.2°
Enters shadow 22:27:38 11° 214° (SW) 2,373 4.2 -16.4°
